SCP
0 0 0 0 0 0 0 0 0 0 0 0 0 0 0 0 0 0 0 0 0 0 0 0 0 0 0 0 0 0 -0 -0 0 0 0 0 0 0 0 0 0 0 0 0 0 0 0
0 0 0 0 0 0 0 0 0 0 0 0 0 0 0 0 0 0 0 0 0 0 0 0 0 0 0 0 0 0 0 0 0 0 0 0 0 0 0 0 0 0 0 0 0 0 0
0 0 0 0 0 0 0 0 0 0 0 0 0 0 0 0 0 0 0 0 0 0 0 0 0 0 0 0 0 0 0 0 0 0 0 0 0 0 0 0 0 0 0 0 0 0 0
0 0 0 0 0 0 0 0 0 0 0 0 0 0 0 0 0 0 0 0 0 0 0 0 0 0 0 0 0 0 0 0 0 0 0 0 0 0 0 0 0 0 0 0 0 0 0
0 0 0 0 0 0 0 0 0 0 0 0 0 0 0 0 0 0 0 0 0 0 0 0 0 0 0 0 0 0 0 0 0 0 0 0 0 0 0 0 0 0 0 0 0 0 0
0 0 0 0 0 -0 -0 0 0 0 0 0 0 0 0 0 0 0 0 0 0 0 0 0 0 0 0 0 0 0 0 0 0 0 0 0 0 0 0 0 0 0 0 0 0 0 0
-0 -0 -0 -0 0 -0 0 -0 0 0 0 0 0 0 0 0 0 0 0 0 0 0 0 0 0 0 0 0 0 0 0 0 0 0 0 0 0 0 0 0 0 0 0 0 0 0 0
0 0 0 0 0 0 0 0 -0 0 0 0 0 0 0 0 0 0 0 0 0 0 0 0 0 0 0 0 0 0 0 0 0 0 0 0 0 0 0 0 0 0 0 0 0 0 0
0 0 -0 -0 0 -0 -0 -0 0 0 -0 0 -0 0 0 0 0 0 0 0 0 0 0 0 0 0 0 0 0 0 0 0 0 0 0 0 0 0 0 0 0 0 0 0 0 0 0
0 -0 -0 -0 -0 -0 -0 -0 0 -0 -0 -0 -0 0 0 0 0 0 0 -0 0 0 0 0 0 0 0 0 0 0 0 0 0 0 0 0 0 0 0 0 0 0 0 0 0 0 0
-0 -0 0 -0 -0 -0 -0 -0 -0 0 -0 0 -0 -0 -0 0 0 0 0 0 0 0 0 0 0 0 0 0 0 0 0 0 0 0 0 0 0 0 0 0 0 0 0 0 0 0 0
-0 -0 -0 -0 -0 -0 -0 -0 0 -0 0 0 -0 -0 -0 0 0 0 0 0 -0 0 0 0 0 0 0 0 0 0 0 0 0 0 0 0 0 0 0 0 0 0 0 0 0 0 0
-0 -0 0 -0 -0 0 -0 0 -0 0 -0 0 -0 -0 0 0 0 0 0 0 0 0 0 0 0 0 0 0 0 0 0 0 0 0 0 0 0 0 0 0 0 0 0 0 0 0 0
-0 0 0 0 0 0 0 0 0 -0 -0 -0 -0 -0 0 0 0 0 0 0 0 0 0 0 0 0 0 0 0 0 0 0 0 0 0 0 0 0 0 0 0 0 0 0 0 0 0
0 0 0 0 0 0 -0 -0 -0 -0 -0 -0 -0 0 0 0 0 0 0 0 0 0 0 0 0 0 0 0 0 0 0 0 0 0 0 0 0 0 0 0 0 0 0 0 0 0 0
-0 0 -0 0 -0 -0 -0 -0 -0 -0 -0 -0 0 0 0 0 0 0 0 0 0 0 0 0 0 0 0 0 0 0 0 0 0 0 0 0 0 0 0 0 0 0 0 0 0 0 0
0 0 -0 0 0 -0 -0 -0 -0 -0 -0 0 0 0 0 0 0 0 0 0 0 0 0 0 0 0 0 0 0 0 0 0 0 0 0 0 0 0 0 0 0 0 0 0 0 0 0
0 -0 -0 -0 -0 -0 -0 -0 -0 -0 0 0 0 0 0 0 0 0 0 0 0 0 0 0 0 0 0 0 0 0 0 0 0 0 0 0 0 0 0 0 0 0 0 0 0 0 0
0 0 0 0 -0 -0 -0 -0 0 0 0 0 0 0 0 0 0 0 0 0 0 0 0 0 0 0 0 0 0 0 0 0 0 0 0 0 0 0 0 0 0 0 0 0 0 0 0
0 -0 0 0 -0 -0 0 0 -0 0 0 0 0 -0 0 0 -0 0 0 0 0 0 0 0 0 0 0 0 0 0 0 0 0 0 0 0 0 0 0 0 0 0 0 0 0 0 0
0 0 -0 -0 -0 -0 0 0 0 0 0 0 0 -0 -0 -0 0 -0 0 0 0 0 0 0 0 0 0 0 0 0 0 0 0 0 0 0 0 0 0 0 0 0 0 0 0 0 0
0 0 -0 -0 -0 -0 -0 0 -0 0 0 0 -0 -0 -0 0 -0 0 0 -0 -0 0 0 0 0 0 0 0 0 0 0 0 0 0 0 0 0 0 0 0 0 0 0 0 0 0 0
0 0 0 0 -0 -0 -0 0 -0 -0 -0 -0 -0 -0 0 0 -0 0 -0 -0 -0 0 0 0 0 0 0 0 0 0 0 0 0 0 0 0 0 -0 0 0 0 0 0 0 0 0 0
0 0 0 0 -0 -0 -0 0 0 0 -0 -0 0 -0 -0 0 -0 -0 0 0 0 0 0 0 0 0 0 0 0 0 0 0 0 0 0 0 0 0 -0 0 0 0 0 0 0 0 0
0 -0 -0 -0 0 -0 -0 -0 -0 0 0 0 0 0 0 0 0 0 -0 0 0 0 0 0 0 0 0 0 0 0 0 0 0 0 0 0 0 0 0 -0 0 0 0 0 0 0 0
-0 -0 -0 -0 -0 -0 0 0 0 0 0 0 0 0 0 0 0 0 0 -0 0 0 0 0 0 0 0 0 0 0 0 0 0 0 0 0 0 0 0 0 0 -0 0 0 0 0 0
-0 -0 -0 -0 -0 -0 -0 -0 -0 -0 -0 -0 -0 -0 0 0 0 -0 0 0 0 0 0 0 0 0 0 0 0 0 0 0 0 0 0 0 0 0 0 0 0 0 0 0 0 0 0
-0 -0 -0 -0 -0 -0 -0 -0 -0 -0 0 -0 -0 -0 -0 0 0 0 0 0 0 0 -0 0 0 0 0 0 0 0 0 0 0 0 0 0 0 0 0 0 0 0 0 0 0 0 0
-0 -0 -0 -0 -0 -0 -0 -0 -0 -0 -0 0 0 0 -0 -0 0 0 0 -0 -0 0 0 -0 0 0 0 0 0 0 0 0 0 0 0 0 0 0 0 0 0 0 0 0 0 0 0
Wind_Speed_500mb
40 41 41 45 41 39 39 38 36 31 28 26 31 34 31 26 31 34 39 49 28 31 33 29 29 29 31 36 27 18 35 27 13 19 6 17 5 10 5 11 15 6 6 7 6 11 18
49 48 48 46 49 50 42 41 40 37 32 28 27 32 32 21 32 28 30 48 31 28 37 34 33 32 36 18 28 19 26 36 29 29 12 22 8 16 10 12 13 7 4 5 4 9 13
51 53 55 58 58 51 53 50 43 41 36 31 26 30 31 29 29 28 29 32 24 28 38 36 36 38 31 31 28 32 22 26 34 30 16 16 19 14 20 3 11 4 2 2 3 3 6
51 53 55 56 56 61 59 55 53 45 39 36 30 31 28 25 25 29 27 23 24 31 37 37 37 36 16 42 23 32 32 25 29 33 30 24 22 24 12 8 7 3 2 7 3 1 5
58 60 63 63 63 60 59 62 58 52 44 40 34 30 26 21 21 33 28 23 21 24 37 38 39 24 11 23 46 26 35 29 27 20 35 34 22 12 13 16 4 2 12 8 1 5 4
67 68 70 71 68 65 62 59 62 55 49 45 39 32 29 24 22 22 37 30 19 24 33 43 32 15 20 25 42 41 37 35 27 28 28 22 9 11 10 16 20 15 17 7 11 8 2
68 69 70 70 73 72 70 61 59 59 53 49 43 35 29 22 21 21 34 28 16 18 44 7 34 7 17 27 34 42 39 39 32 20 12 11 12 27 29 26 11 6 4 11 2 6 5
72 70 73 74 73 72 73 71 62 62 51 52 47 37 32 23 19 20 32 24 18 7 11 13 31 22 33 36 19 43 45 25 21 18 18 9 19 5 6 13 18 15 14 10 3 4 6
72 75 71 71 74 75 74 61 68 65 57 54 48 40 33 25 19 24 40 45 14 26 7 22 31 25 29 27 14 37 40 23 18 23 28 19 3 17 13 14 23 22 26 19 13 2 4
77 73 75 69 66 68 67 66 68 62 57 56 51 40 33 28 16 24 44 46 2 12 7 11 17 12 22 25 9 34 33 17 7 20 22 10 11 20 20 24 25 29 15 18 12 7 14
69 67 62 48 51 57 65 71 70 61 56 56 49 40 38 28 6 31 27 39 25 8 10 6 9 11 25 12 44 24 26 12 18 14 11 12 17 23 21 14 20 8 14 13 9 12 10
61 66 53 45 49 57 61 69 58 58 54 53 47 41 40 34 8 9 20 24 21 7 8 9 13 12 13 10 6 27 18 14 18 12 12 8 4 3 7 7 19 26 20 14 9 3 13
59 59 69 66 64 68 65 52 54 59 52 50 46 41 33 25 4 13 30 25 3 3 6 9 7 15 12 11 13 21 24 19 12 15 16 5 5 3 6 17 6 12 26 7 7 9 13
53 44 49 54 54 50 50 42 48 53 53 51 46 43 35 17 5 25 31 10 6 3 3 6 5 19 6 14 6 12 28 18 3 8 20 18 11 18 11 10 17 23 19 8 14 11 11
57 40 42 41 42 41 38 43 54 55 56 52 45 44 32 20 25 26 20 10 3 4 5 5 17 9 7 6 8 9 16 21 15 9 8 13 3 5 4 2 12 13 15 3 1 4 4
58 53 45 42 40 45 51 56 54 56 54 51 61 38 29 27 20 8 4 10 2 4 8 9 7 3 7 15 12 16 15 5 7 15 6 8 10 0 3 1 1 6 17 6 2 6 12
54 51 46 38 48 50 54 53 53 53 47 46 49 14 22 21 16 9 5 3 4 14 17 13 8 7 6 8 8 15 13 7 7 16 11 2 5 5 11 15 24 10 10 5 7 5 6
48 48 46 48 51 50 49 48 49 48 45 38 22 7 30 23 6 5 4 3 5 1 8 6 8 11 8 7 7 7 8 9 10 7 18 11 8 9 5 3 3 15 15 18 7 8 8
49 47 48 47 46 46 44 44 47 44 37 35 14 15 18 2 5 5 3 3 2 4 8 7 7 11 8 6 7 5 10 5 16 7 9 8 8 9 4 5 2 9 15 22 6 4 16
44 46 44 42 41 38 36 39 40 31 25 21 15 6 4 10 7 10 8 2 3 9 6 7 8 5 6 6 9 6 7 4 9 10 14 5 3 3 12 6 0 16 19 29 26 14 13
43 39 39 36 33 30 33 34 30 23 22 19 8 5 7 6 2 5 4 3 5 4 5 10 6 2 7 8 4 7 7 6 5 7 7 5 4 5 6 8 6 8 6 22 38 39 25
40 34 21 16 22 25 23 19 18 19 9 3 8 12 9 6 10 10 4 7 10 4 4 2 6 5 7 5 6 9 11 7 5 6 10 8 6 8 10 13 20 13 22 24 23 31 41
30 31 30 27 8 17 18 19 19 18 8 3 9 19 10 5 6 7 7 11 15 10 3 7 7 8 7 7 4 8 9 9 7 8 9 13 10 7 5 7 10 13 30 33 28 27 30
23 26 27 30 29 25 25 22 15 12 5 6 10 14 7 5 5 7 0 12 11 13 8 7 7 5 9 17 16 11 9 6 2 8 3 10 8 2 2 2 12 8 8 16 28 32 35
19 17 19 23 30 24 19 14 9 3 14 13 17 8 4 6 12 6 7 4 3 2 3 5 8 9 20 8 5 5 5 5 7 9 13 11 7 6 7 12 12 18 17 17 20 30 34
9 10 12 12 18 22 20 17 14 13 17 14 11 15 7 17 12 7 14 12 6 8 5 3 10 20 9 7 4 5 7 3 3 5 8 14 14 7 4 6 10 8 7 8 9 18 23
2 4 4 6 5 7 11 14 14 14 14 12 10 7 4 10 5 13 4 9 11 7 5 8 11 6 6 4 4 5 4 3 5 14 11 11 10 23 13 10 17 18 16 9 14 14 22
12 10 8 7 4 5 11 11 3 9 12 11 9 4 3 10 15 9 6 8 12 11 7 11 11 2 4 7 7 6 6 8 3 3 11 16 16 11 12 13 22 16 8 18 9 15 6
15 15 12 11 11 16 18 21 15 10 12 12 4 0 13 8 12 15 10 9 14 18 10 23 2 11 14 6 3 5 4 6 7 6 5 9 13 10 20 15 7 11 7 10 6 5 4
Wind_Direction_500mb
293 285 281 286 283 277 271 274 275 266 264 268 257 255 262 262 256 246 236 243 246 221 210 196 198 195 166 191 226 194 195 196 201 240 301 319 5 120 87 359 348 32 30 33 51 137 142
291 289 290 279 271 272 270 267 264 262 256 259 259 242 255 267 243 233 227 228 241 225 207 194 192 190 194 189 187 177 189 201 203 213 204 202 207 168 51 2 338 359 37 54 48 117 128
290 282 277 273 273 268 262 260 259 257 249 250 250 239 260 251 237 227 218 216 229 225 210 197 188 188 189 205 199 188 187 190 200 212 187 175 165 133 140 301 334 343 198 54 73 64 99
294 290 288 281 272 262 258 255 253 249 241 239 240 233 254 242 235 222 216 215 219 220 212 202 186 190 206 210 195 193 184 174 186 194 194 155 148 122 148 146 18 223 237 202 113 16 46
296 289 280 274 269 266 259 248 247 243 238 231 230 229 239 249 228 227 217 214 216 211 205 199 182 175 213 199 203 181 188 178 164 158 164 163 159 121 134 157 331 306 211 184 261 66 342
298 291 281 273 267 261 258 247 239 239 231 224 222 224 226 237 223 231 217 219 212 200 203 183 180 168 216 198 195 188 179 179 153 142 134 152 175 179 171 184 188 195 212 203 219 48 207
304 297 287 276 264 256 252 247 236 230 225 218 216 217 216 223 215 234 206 220 213 214 201 171 170 187 161 169 168 180 174 163 158 157 168 168 192 205 200 192 184 148 200 238 308 66 291
308 300 292 279 265 254 240 236 232 219 220 210 209 209 209 212 211 218 199 207 214 150 105 178 172 185 159 150 141 166 165 154 165 178 147 146 214 134 216 180 168 185 208 227 251 58 281
320 312 298 282 261 246 241 220 222 213 213 203 201 202 200 200 210 207 198 207 192 164 93 159 184 153 156 158 142 164 166 143 159 166 189 195 142 166 162 178 189 209 214 209 248 284 175
331 323 309 286 257 232 218 210 207 203 201 194 194 193 190 193 203 215 207 206 219 147 174 166 174 187 164 147 86 159 162 145 128 167 159 190 138 170 170 203 199 216 207 205 197 244 253
344 341 337 309 234 206 201 206 195 194 184 187 185 185 188 191 219 194 207 213 234 198 166 162 158 170 173 165 133 168 143 122 141 132 168 150 172 146 175 209 186 225 172 189 211 239 283
8 13 19 48 126 160 175 161 176 183 176 179 175 178 183 186 206 167 168 184 234 165 152 193 140 178 138 148 92 142 155 103 116 92 75 88 70 162 135 123 171 134 117 80 76 157 247
22 38 51 79 106 126 140 152 160 160 166 163 170 173 178 184 245 140 152 144 63 327 338 149 166 158 143 132 120 151 160 161 148 137 159 121 77 97 133 107 111 180 165 147 196 210 250
29 47 62 81 100 115 135 142 153 152 154 154 164 164 166 176 161 139 145 88 247 245 242 308 165 147 148 133 66 139 152 164 159 86 144 166 180 182 176 190 178 179 194 186 212 208 228
46 54 67 83 100 112 126 137 137 143 147 153 154 150 149 142 140 153 170 140 356 151 300 207 137 176 147 82 134 144 163 177 177 183 131 159 188 177 163 130 164 170 205 127 110 124 265
51 57 78 91 101 113 115 127 136 144 147 151 144 139 128 141 152 184 61 99 65 272 286 209 125 22 141 151 149 152 141 171 150 195 50 152 122 57 125 83 221 205 151 159 223 209 243
60 63 69 95 104 118 124 131 138 145 148 154 135 80 135 141 130 46 65 99 313 340 337 22 70 91 99 119 142 157 149 76 149 195 178 109 38 93 156 205 191 163 181 186 178 205 235
58 70 75 91 105 112 121 130 138 144 146 149 106 85 138 143 60 48 95 168 4 343 335 78 67 65 56 81 97 111 131 70 350 147 180 170 168 160 160 82 354 229 216 186 189 196 242
66 71 80 91 99 109 119 127 133 140 143 133 85 88 138 138 123 86 350 10 297 20 32 37 61 44 75 63 113 79 97 18 47 68 141 149 183 145 144 279 188 217 208 219 202 7 220
63 74 82 92 101 110 120 127 132 138 148 148 114 115 31 49 94 127 141 107 90 7 54 47 114 95 104 66 36 117 104 93 53 93 63 63 133 276 215 100 327 205 211 218 210 230 213
68 82 90 90 91 105 125 133 133 126 126 139 71 88 148 156 176 101 78 125 114 102 24 25 42 79 101 124 75 103 100 93 48 107 63 87 99 71 351 303 295 262 243 240 228 236 236
70 80 98 87 86 98 128 127 118 136 85 101 125 143 122 99 140 128 351 205 175 173 164 170 140 125 68 91 29 155 136 164 115 163 162 158 165 191 202 185 218 232 246 223 246 250 253
65 68 66 58 112 150 129 133 145 158 156 73 111 139 138 147 149 154 203 178 198 163 113 74 141 109 140 123 81 80 77 93 95 150 156 168 148 160 225 183 261 256 226 223 224 212 222
66 59 54 54 60 147 160 143 175 173 197 94 144 145 119 155 198 220 67 205 198 188 130 137 138 124 128 130 108 85 49 24 199 233 266 145 127 124 247 222 237 316 215 212 222 238 234
91 83 75 72 72 102 137 140 159 194 264 250 211 200 138 122 189 239 217 134 99 95 61 108 150 130 139 106 84 70 4 31 309 256 208 206 173 159 208 218 307 290 236 208 190 241 230
86 82 79 72 88 99 104 110 104 77 67 75 132 171 187 132 213 137 162 175 152 160 135 138 132 153 136 76 73 167 191 151 161 110 127 181 222 229 157 235 246 270 298 166 146 264 215
13 1 36 69 76 125 121 101 86 66 50 51 89 123 160 110 113 149 158 171 158 142 132 132 157 154 113 96 113 181 211 275 212 166 160 148 177 214 202 246 279 268 261 133 202 266 192
238 260 279 297 298 255 238 226 264 357 10 5 13 52 82 99 145 177 139 138 149 169 154 150 112 131 95 171 180 180 201 199 183 230 177 176 172 190 192 212 258 226 134 214 303 334 68
232 236 240 253 276 292 273 230 234 284 318 319 325 59 86 100 139 151 196 211 189 187 147 168 28 160 161 145 197 123 181 169 190 224 181 222 204 189 201 209 244 212 217 264 351 351 47
Wind_Speed_850mb
40 41 41 45 41 39 39 38 36 31 28 26 31 34 31 26 31 34 39 49 28 31 33 29 29 29 31 36 27 18 35 27 13 19 6 17 5 10 5 11 15 6 6 7 6 11 18
49 48 48 46 49 50 42 41 40 37 32 28 27 32 32 21 32 28 30 48 31 28 37 34 33 32 36 18 28 19 26 36 29 29 12 22 8 16 10 12 13 7 4 5 4 9 13
51 53 55 58 58 51 53 50 43 41 36 31 26 30 31 29 29 28 29 32 24 28 38 36 36 38 31 31 28 32 22 26 34 30 16 16 19 14 20 3 11 4 2 2 3 3 6
51 53 55 56 56 61 59 55 53 45 39 36 30 31 28 25 25 29 27 23 24 31 37 37 37 36 16 42 23 32 32 25 29 33 30 24 22 24 12 8 7 3 2 7 3 1 5
58 60 63 63 63 60 59 62 58 52 44 40 34 30 26 21 21 33 28 23 21 24 37 38 39 24 11 23 46 26 35 29 27 20 35 34 22 12 13 16 4 2 12 8 1 5 4
67 68 70 71 68 65 62 59 62 55 49 45 39 32 29 24 22 22 37 30 19 24 33 43 32 15 20 25 42 41 37 35 27 28 28 22 9 11 10 16 20 15 17 7 11 8 2
68 69 70 70 73 72 70 61 59 59 53 49 43 35 29 22 21 21 34 28 16 18 44 7 34 7 17 27 34 42 39 39 32 20 12 11 12 27 29 26 11 6 4 11 2 6 5
72 70 73 74 73 72 73 71 62 62 51 52 47 37 32 23 19 20 32 24 18 7 11 13 31 22 33 36 19 43 45 25 21 18 18 9 19 5 6 13 18 15 14 10 3 4 6
72 75 71 71 74 75 74 61 68 65 57 54 48 40 33 25 19 24 40 45 14 26 7 22 31 25 29 27 14 37 40 23 18 23 28 19 3 17 13 14 23 22 26 19 13 2 4
77 73 75 69 66 68 67 66 68 62 57 56 51 40 33 28 16 24 44 46 2 12 7 11 17 12 22 25 9 34 33 17 7 20 22 10 11 20 20 24 25 29 15 18 12 7 14
69 67 62 48 51 57 65 71 70 61 56 56 49 40 38 28 6 31 27 39 25 8 10 6 9 11 25 12 44 24 26 12 18 14 11 12 17 23 21 14 20 8 14 13 9 12 10
61 66 53 45 49 57 61 69 58 58 54 53 47 41 40 34 8 9 20 24 21 7 8 9 13 12 13 10 6 27 18 14 18 12 12 8 4 3 7 7 19 26 20 14 9 3 13
59 59 69 66 64 68 65 52 54 59 52 50 46 41 33 25 4 13 30 25 3 3 6 9 7 15 12 11 13 21 24 19 12 15 16 5 5 3 6 17 6 12 26 7 7 9 13
53 44 49 54 54 50 50 42 48 53 53 51 46 43 35 17 5 25 31 10 6 3 3 6 5 19 6 14 6 12 28 18 3 8 20 18 11 18 11 10 17 23 19 8 14 11 11
57 40 42 41 42 41 38 43 54 55 56 52 45 44 32 20 25 26 20 10 3 4 5 5 17 9 7 6 8 9 16 21 15 9 8 13 3 5 4 2 12 13 15 3 1 4 4
58 53 45 42 40 45 51 56 54 56 54 51 61 38 29 27 20 8 4 10 2 4 8 9 7 3 7 15 12 16 15 5 7 15 6 8 10 0 3 1 1 6 17 6 2 6 12
54 51 46 38 48 50 54 53 53 53 47 46 49 14 22 21 16 9 5 3 4 14 17 13 8 7 6 8 8 15 13 7 7 16 11 2 5 5 11 15 24 10 10 5 7 5 6
48 48 46 48 51 50 49 48 49 48 45 38 22 7 30 23 6 5 4 3 5 1 8 6 8 11 8 7 7 7 8 9 10 7 18 11 8 9 5 3 3 15 15 18 7 8 8
49 47 48 47 46 46 44 44 47 44 37 35 14 15 18 2 5 5 3 3 2 4 8 7 7 11 8 6 7 5 10 5 16 7 9 8 8 9 4 5 2 9 15 22 6 4 16
44 46 44 42 41 38 36 39 40 31 25 21 15 6 4 10 7 10 8 2 3 9 6 7 8 5 6 6 9 6 7 4 9 10 14 5 3 3 12 6 0 16 19 29 26 14 13
43 39 39 36 33 30 33 34 30 23 22 19 8 5 7 6 2 5 4 3 5 4 5 10 6 2 7 8 4 7 7 6 5 7 7 5 4 5 6 8 6 8 6 22 38 39 25
40 34 21 16 22 25 23 19 18 19 9 3 8 12 9 6 10 10 4 7 10 4 4 2 6 5 7 5 6 9 11 7 5 6 10 8 6 8 10 13 20 13 22 24 23 31 41
30 31 30 27 8 17 18 19 19 18 8 3 9 19 10 5 6 7 7 11 15 10 3 7 7 8 7 7 4 8 9 9 7 8 9 13 10 7 5 7 10 13 30 33 28 27 30
23 26 27 30 29 25 25 22 15 12 5 6 10 14 7 5 5 7 0 12 11 13 8 7 7 5 9 17 16 11 9 6 2 8 3 10 8 2 2 2 12 8 8 16 28 32 35
19 17 19 23 30 24 19 14 9 3 14 13 17 8 4 6 12 6 7 4 3 2 3 5 8 9 20 8 5 5 5 5 7 9 13 11 7 6 7 12 12 18 17 17 20 30 34
9 10 12 12 18 22 20 17 14 13 17 14 11 15 7 17 12 7 14 12 6 8 5 3 10 20 9 7 4 5 7 3 3 5 8 14 14 7 4 6 10 8 7 8 9 18 23
2 4 4 6 5 7 11 14 14 14 14 12 10 7 4 10 5 13 4 9 11 7 5 8 11 6 6 4 4 5 4 3 5 14 11 11 10 23 13 10 17 18 16 9 14 14 22
12 10 8 7 4 5 11 11 3 9 12 11 9 4 3 10 15 9 6 8 12 11 7 11 11 2 4 7 7 6 6 8 3 3 11 16 16 11 12 13 22 16 8 18 9 15 6
15 15 12 11 11 16 18 21 15 10 12 12 4 0 13 8 12 15 10 9 14 18 10 23 2 11 14 6 3 5 4 6 7 6 5 9 13 10 20 15 7 11 7 10 6 5 4
Wind_Direction_850mb
293 285 281 286 283 277 271 274 275 266 264 268 257 255 262 262 256 246 236 243 246 221 210 196 198 195 166 191 226 194 195 196 201 240 301 319 5 120 87 359 348 32 30 33 51 137 142
291 289 290 279 271 272 270 267 264 262 256 259 259 242 255 267 243 233 227 228 241 225 207 194 192 190 194 189 187 177 189 201 203 213 204 202 207 168 51 2 338 359 37 54 48 117 128
290 282 277 273 273 268 262 260 259 257 249 250 250 239 260 251 237 227 218 216 229 225 210 197 188 188 189 205 199 188 187 190 200 212 187 175 165 133 140 301 334 343 198 54 73 64 99
294 290 288 281 272 262 258 255 253 249 241 239 240 233 254 242 235 222 216 215 219 220 212 202 186 190 206 210 195 193 184 174 186 194 194 155 148 122 148 146 18 223 237 202 113 16 46
296 289 280 274 269 266 259 248 247 243 238 231 230 229 239 249 228 227 217 214 216 211 205 199 182 175 213 199 203 181 188 178 164 158 164 163 159 121 134 157 331 306 211 184 261 66 342
298 291 281 273 267 261 258 247 239 239 231 224 222 224 226 237 223 231 217 219 212 200 203 183 180 168 216 198 195 188 179 179 153 142 134 152 175 179 171 184 188 195 212 203 219 48 207
304 297 287 276 264 256 252 247 236 230 225 218 216 217 216 223 215 234 206 220 213 214 201 171 170 187 161 169 168 180 174 163 158 157 168 168 192 205 200 192 184 148 200 238 308 66 291
308 300 292 279 265 254 240 236 232 219 220 210 209 209 209 212 211 218 199 207 214 150 105 178 172 185 159 150 141 166 165 154 165 178 147 146 214 134 216 180 168 185 208 227 251 58 281
320 312 298 282 261 246 241 220 222 213 213 203 201 202 200 200 210 207 198 207 192 164 93 159 184 153 156 158 142 164 166 143 159 166 189 195 142 166 162 178 189 209 214 209 248 284 175
331 323 309 286 257 232 218 210 207 203 201 194 194 193 190 193 203 215 207 206 219 147 174 166 174 187 164 147 86 159 162 145 128 167 159 190 138 170 170 203 199 216 207 205 197 244 253
344 341 337 309 234 206 201 206 195 194 184 187 185 185 188 191 219 194 207 213 234 198 166 162 158 170 173 165 133 168 143 122 141 132 168 150 172 146 175 209 186 225 172 189 211 239 283
8 13 19 48 126 160 175 161 176 183 176 179 175 178 183 186 206 167 168 184 234 165 152 193 140 178 138 148 92 142 155 103 116 92 75 88 70 162 135 123 171 134 117 80 76 157 247
22 38 51 79 106 126 140 152 160 160 166 163 170 173 178 184 245 140 152 144 63 327 338 149 166 158 143 132 120 151 160 161 148 137 159 121 77 97 133 107 111 180 165 147 196 210 250
29 47 62 81 100 115 135 142 153 152 154 154 164 164 166 176 161 139 145 88 247 245 242 308 165 147 148 133 66 139 152 164 159 86 144 166 180 182 176 190 178 179 194 186 212 208 228
46 54 67 83 100 112 126 137 137 143 147 153 154 150 149 142 140 153 170 140 356 151 300 207 137 176 147 82 134 144 163 177 177 183 131 159 188 177 163 130 164 170 205 127 110 124 265
51 57 78 91 101 113 115 127 136 144 147 151 144 139 128 141 152 184 61 99 65 272 286 209 125 22 141 151 149 152 141 171 150 195 50 152 122 57 125 83 221 205 151 159 223 209 243
60 63 69 95 104 118 124 131 138 145 148 154 135 80 135 141 130 46 65 99 313 340 337 22 70 91 99 119 142 157 149 76 149 195 178 109 38 93 156 205 191 163 181 186 178 205 235
58 70 75 91 105 112 121 130 138 144 146 149 106 85 138 143 60 48 95 168 4 343 335 78 67 65 56 81 97 111 131 70 350 147 180 170 168 160 160 82 354 229 216 186 189 196 242
66 71 80 91 99 109 119 127 133 140 143 133 85 88 138 138 123 86 350 10 297 20 32 37 61 44 75 63 113 79 97 18 47 68 141 149 183 145 144 279 188 217 208 219 202 7 220
63 74 82 92 101 110 120 127 132 138 148 148 114 115 31 49 94 127 141 107 90 7 54 47 114 95 104 66 36 117 104 93 53 93 63 63 133 276 215 100 327 205 211 218 210 230 213
68 82 90 90 91 105 125 133 133 126 126 139 71 88 148 156 176 101 78 125 114 102 24 25 42 79 101 124 75 103 100 93 48 107 63 87 99 71 351 303 295 262 243 240 228 236 236
70 80 98 87 86 98 128 127 118 136 85 101 125 143 122 99 140 128 351 205 175 173 164 170 140 125 68 91 29 155 136 164 115 163 162 158 165 191 202 185 218 232 246 223 246 250 253
65 68 66 58 112 150 129 133 145 158 156 73 111 139 138 147 149 154 203 178 198 163 113 74 141 109 140 123 81 80 77 93 95 150 156 168 148 160 225 183 261 256 226 223 224 212 222
66 59 54 54 60 147 160 143 175 173 197 94 144 145 119 155 198 220 67 205 198 188 130 137 138 124 128 130 108 85 49 24 199 233 266 145 127 124 247 222 237 316 215 212 222 238 234
91 83 75 72 72 102 137 140 159 194 264 250 211 200 138 122 189 239 217 134 99 95 61 108 150 130 139 106 84 70 4 31 309 256 208 206 173 159 208 218 307 290 236 208 190 241 230
86 82 79 72 88 99 104 110 104 77 67 75 132 171 187 132 213 137 162 175 152 160 135 138 132 153 136 76 73 167 191 151 161 110 127 181 222 229 157 235 246 270 298 166 146 264 215
13 1 36 69 76 125 121 101 86 66 50 51 89 123 160 110 113 149 158 171 158 142 132 132 157 154 113 96 113 181 211 275 212 166 160 148 177 214 202 246 279 268 261 133 202 266 192
238 260 279 297 298 255 238 226 264 357 10 5 13 52 82 99 145 177 139 138 149 169 154 150 112 131 95 171 180 180 201 199 183 230 177 176 172 190 192 212 258 226 134 214 303 334 68
232 236 240 253 276 292 273 230 234 284 318 319 325 59 86 100 139 151 196 211 189 187 147 168 28 160 161 145 197 123 181 169 190 224 181 222 204 189 201 209 244 212 217 264 351 351 47